Location: Oberkirch
(48.5323°N, 8.0787°E)
Time: 15:45:59
(UTC+00:00)

S-56A Canister/Altair - Pass Details

Date: 16 February 2026
Orbit: 633 x 2484 km, 38.9° (Epoch: 7 March)

Event Time Altitude Azimuth Distance (km) Brightness Sun altitude
Exits shadow 05:58:17 - 266° (W) 4,440 10.8 -6.5°
Reaches altitude 10° 06:00:10 10° 258° (WSW) 4,154 10.7 -6.2°
Maximum altitude 06:07:43 20° 216° (SW) 3,829 10.9 -5.0°
Drops below altitude 10° 06:16:39 10° 176° (S) 4,993 11.9 -3.5°
Sets 06:22:17 0° 163° (SSE) 6,119 12.6 -2.6°
